Year,Month,Day,Hour,Minute,Value (Times are PST for temperature in C)
2011,08,18,00,00,15.30
2011,08,18,00,01,15.30
2011,08,18,00,02,15.30
2011,08,18,00,03,15.30
2011,08,18,00,04,15.20
2011,08,18,00,05,15.20
2011,08,18,00,06,15.20
2011,08,18,00,07,15.20
2011,08,18,00,08,15.20
2011,08,18,00,09,15.20
2011,08,18,00,10,15.20
2011,08,18,00,11,15.20
2011,08,18,00,12,15.10
2011,08,18,00,13,15.10
2011,08,18,00,14,15.10
2011,08,18,00,15,15.10
2011,08,18,00,16,15.00
2011,08,18,00,17,15.00
2011,08,18,00,18,15.00
2011,08,18,00,19,14.90
2011,08,18,00,20,14.90
2011,08,18,00,21,14.90
2011,08,18,00,22,14.90
2011,08,18,00,23,14.90
2011,08,18,00,24,14.80
2011,08,18,00,25,14.80
2011,08,18,00,26,14.80
2011,08,18,00,27,14.80
2011,08,18,00,28,14.80
2011,08,18,00,29,14.80
2011,08,18,00,30,14.70
2011,08,18,00,31,14.70
2011,08,18,00,32,14.70
2011,08,18,00,33,14.70
2011,08,18,00,34,14.70
2011,08,18,00,35,14.70
2011,08,18,00,36,14.70
2011,08,18,00,37,14.70
2011,08,18,00,38,14.70
2011,08,18,00,39,14.70
2011,08,18,00,40,14.60
2011,08,18,00,41,14.60
2011,08,18,00,42,14.60
2011,08,18,00,43,14.60
2011,08,18,00,44,14.60
2011,08,18,00,45,14.60
2011,08,18,00,46,14.60
2011,08,18,00,47,14.60
2011,08,18,00,48,14.60
2011,08,18,00,49,14.50
2011,08,18,00,50,14.50
2011,08,18,00,51,14.50
2011,08,18,00,52,14.50
2011,08,18,00,53,14.50
2011,08,18,00,54,14.50
2011,08,18,00,55,14.50
2011,08,18,00,56,14.40
2011,08,18,00,57,14.40
2011,08,18,00,58,14.40
2011,08,18,00,59,14.40
2011,08,18,01,00,14.40
2011,08,18,01,01,14.40
2011,08,18,01,02,14.40
2011,08,18,01,03,14.30
2011,08,18,01,04,14.30
2011,08,18,01,05,14.30
2011,08,18,01,06,14.30
2011,08,18,01,07,14.30
2011,08,18,01,08,14.30
2011,08,18,01,09,14.30
2011,08,18,01,10,14.20
2011,08,18,01,11,14.20
2011,08,18,01,12,14.20
2011,08,18,01,13,14.20
2011,08,18,01,14,14.20
2011,08,18,01,15,14.20
2011,08,18,01,16,14.20
2011,08,18,01,17,14.20
2011,08,18,01,18,14.20
2011,08,18,01,19,14.20
2011,08,18,01,20,14.20
2011,08,18,01,21,14.10
2011,08,18,01,22,14.10
2011,08,18,01,23,14.10
2011,08,18,01,24,14.10
2011,08,18,01,25,14.10
2011,08,18,01,26,14.10
2011,08,18,01,27,14.10
2011,08,18,01,28,14.00
2011,08,18,01,29,14.00
2011,08,18,01,30,14.00
2011,08,18,01,31,14.00
2011,08,18,01,32,14.00
2011,08,18,01,33,13.90
2011,08,18,01,34,13.90
2011,08,18,01,35,13.90
2011,08,18,01,36,13.90
2011,08,18,01,37,13.90
2011,08,18,01,38,13.90
2011,08,18,01,39,13.80
2011,08,18,01,40,13.80
2011,08,18,01,41,13.80
2011,08,18,01,42,13.80
2011,08,18,01,43,13.80
2011,08,18,01,44,13.80
2011,08,18,01,45,13.80
2011,08,18,01,46,13.80
2011,08,18,01,47,13.70
2011,08,18,01,48,13.70
2011,08,18,01,49,13.70
2011,08,18,01,50,13.70
2011,08,18,01,51,13.70
2011,08,18,01,52,13.70
2011,08,18,01,53,13.70
2011,08,18,01,54,13.70
2011,08,18,01,55,13.70
2011,08,18,01,56,13.60
2011,08,18,01,57,13.60
2011,08,18,01,58,13.60
2011,08,18,01,59,13.60
2011,08,18,02,00,13.60
2011,08,18,02,01,13.60
2011,08,18,02,02,13.60
2011,08,18,02,03,13.60
2011,08,18,02,04,13.50
2011,08,18,02,05,13.50
2011,08,18,02,06,13.50
2011,08,18,02,07,13.50
2011,08,18,02,08,13.40
2011,08,18,02,09,13.40
2011,08,18,02,10,13.40
2011,08,18,02,11,13.40
2011,08,18,02,12,13.40
2011,08,18,02,13,13.40
2011,08,18,02,14,13.40
2011,08,18,02,15,13.40
2011,08,18,02,16,13.40
2011,08,18,02,17,13.40
2011,08,18,02,18,13.30
2011,08,18,02,19,13.30
2011,08,18,02,20,13.30
2011,08,18,02,21,13.30
2011,08,18,02,22,13.30
2011,08,18,02,23,13.30
2011,08,18,02,24,13.30
2011,08,18,02,25,13.30
2011,08,18,02,26,13.30
2011,08,18,02,27,13.30
2011,08,18,02,28,13.30
2011,08,18,02,29,13.20
2011,08,18,02,30,13.20
2011,08,18,02,31,13.20
2011,08,18,02,32,13.20
2011,08,18,02,33,13.20
2011,08,18,02,34,13.20
2011,08,18,02,35,13.20
2011,08,18,02,36,13.20
2011,08,18,02,37,13.20
2011,08,18,02,38,13.20
2011,08,18,02,39,13.20
2011,08,18,02,40,13.20
2011,08,18,02,41,13.20
2011,08,18,02,42,13.10
2011,08,18,02,43,13.10
2011,08,18,02,44,13.10
2011,08,18,02,45,13.10
2011,08,18,02,46,13.10
2011,08,18,02,47,13.10
2011,08,18,02,48,13.10
2011,08,18,02,49,13.10
2011,08,18,02,50,13.10
2011,08,18,02,51,13.10
2011,08,18,02,52,13.00
2011,08,18,02,53,13.00
2011,08,18,02,54,13.00
2011,08,18,02,55,13.00
2011,08,18,02,56,13.00
2011,08,18,02,57,13.00
2011,08,18,02,58,13.00
2011,08,18,02,59,13.00
2011,08,18,03,00,12.90
2011,08,18,03,01,12.90
2011,08,18,03,02,12.90
2011,08,18,03,03,12.90
2011,08,18,03,04,12.90
2011,08,18,03,05,12.90
2011,08,18,03,06,12.90
2011,08,18,03,07,12.90
2011,08,18,03,08,12.90
2011,08,18,03,09,12.90
2011,08,18,03,10,12.80
2011,08,18,03,11,12.80
2011,08,18,03,12,12.80
2011,08,18,03,13,12.80
2011,08,18,03,14,12.80
2011,08,18,03,15,12.80
2011,08,18,03,16,12.80
2011,08,18,03,17,12.80
2011,08,18,03,18,12.80
2011,08,18,03,19,12.80
2011,08,18,03,20,12.80
2011,08,18,03,21,12.70
2011,08,18,03,22,12.70
2011,08,18,03,23,12.70
2011,08,18,03,24,12.70
2011,08,18,03,25,12.70
2011,08,18,03,26,12.70
2011,08,18,03,27,12.70
2011,08,18,03,28,12.70
2011,08,18,03,29,12.70
2011,08,18,03,30,12.70
2011,08,18,03,31,12.70
2011,08,18,03,32,12.70
2011,08,18,03,33,12.70
2011,08,18,03,34,12.60
2011,08,18,03,35,12.60
2011,08,18,03,36,12.60
2011,08,18,03,37,12.60
2011,08,18,03,38,12.60
2011,08,18,03,39,12.60
2011,08,18,03,40,12.60
2011,08,18,03,41,12.60
2011,08,18,03,42,12.60
2011,08,18,03,43,12.60
2011,08,18,03,44,12.60
2011,08,18,03,45,12.50
2011,08,18,03,46,12.50
2011,08,18,03,47,12.50
2011,08,18,03,48,12.50
2011,08,18,03,49,12.50
2011,08,18,03,50,12.50
2011,08,18,03,51,12.50
2011,08,18,03,52,12.50
2011,08,18,03,53,12.40
2011,08,18,03,54,12.40
2011,08,18,03,55,12.40
2011,08,18,03,56,12.40
2011,08,18,03,57,12.40
2011,08,18,03,58,12.40
2011,08,18,03,59,12.40
2011,08,18,04,00,12.30
2011,08,18,04,01,12.30
2011,08,18,04,02,12.30
2011,08,18,04,03,12.30
2011,08,18,04,04,12.30
2011,08,18,04,05,12.30
2011,08,18,04,06,12.30
2011,08,18,04,07,12.30
2011,08,18,04,08,12.30
2011,08,18,04,09,12.30
2011,08,18,04,10,12.30
2011,08,18,04,11,12.30
2011,08,18,04,12,12.30
2011,08,18,04,13,12.30
2011,08,18,04,14,12.30
2011,08,18,04,15,12.20
2011,08,18,04,16,12.20
2011,08,18,04,17,12.20
2011,08,18,04,18,12.20
2011,08,18,04,19,12.20
2011,08,18,04,20,12.20
2011,08,18,04,21,12.20
2011,08,18,04,22,12.20
2011,08,18,04,23,12.20
2011,08,18,04,24,12.20
2011,08,18,04,25,12.10
2011,08,18,04,26,12.10
2011,08,18,04,27,12.10
2011,08,18,04,28,12.10
2011,08,18,04,29,12.10
2011,08,18,04,30,12.10
2011,08,18,04,31,12.10
2011,08,18,04,32,12.10
2011,08,18,04,33,12.10
2011,08,18,04,34,12.10
2011,08,18,04,35,12.00
2011,08,18,04,36,12.00
2011,08,18,04,37,12.00
2011,08,18,04,38,12.00
2011,08,18,04,39,12.00
2011,08,18,04,40,12.00
2011,08,18,04,41,12.00
2011,08,18,04,42,12.00
2011,08,18,04,43,12.00
2011,08,18,04,44,12.00
2011,08,18,04,45,11.90
2011,08,18,04,46,11.90
2011,08,18,04,47,11.90
2011,08,18,04,48,11.90
2011,08,18,04,49,11.90
2011,08,18,04,50,11.80
2011,08,18,04,51,11.80
2011,08,18,04,52,11.80
2011,08,18,04,53,11.80
2011,08,18,04,54,11.80
2011,08,18,04,55,11.70
2011,08,18,04,56,11.70
2011,08,18,04,57,11.70
2011,08,18,04,58,11.70
2011,08,18,04,59,11.70
2011,08,18,05,00,11.60
2011,08,18,05,01,11.60
2011,08,18,05,02,11.60
2011,08,18,05,03,11.60
2011,08,18,05,04,11.60
2011,08,18,05,05,11.60
2011,08,18,05,06,11.50
2011,08,18,05,07,11.50
2011,08,18,05,08,11.50
2011,08,18,05,09,11.50
2011,08,18,05,10,11.50
2011,08,18,05,11,11.50
2011,08,18,05,12,11.50
2011,08,18,05,13,11.50
2011,08,18,05,14,11.50
2011,08,18,05,15,11.40
2011,08,18,05,16,11.40
2011,08,18,05,17,11.40
2011,08,18,05,18,11.40
2011,08,18,05,19,11.40
2011,08,18,05,20,11.40
2011,08,18,05,21,11.40
2011,08,18,05,22,11.40
2011,08,18,05,23,11.40
2011,08,18,05,24,11.40
2011,08,18,05,25,11.40
2011,08,18,05,26,11.40
2011,08,18,05,27,11.40
2011,08,18,05,28,11.40
2011,08,18,05,29,11.40
2011,08,18,05,30,11.40
2011,08,18,05,31,11.40
2011,08,18,05,32,11.40
2011,08,18,05,33,11.40
2011,08,18,05,34,11.40
2011,08,18,05,35,11.40
2011,08,18,05,36,11.40
2011,08,18,05,37,11.40
2011,08,18,05,38,11.40
2011,08,18,05,39,11.40
2011,08,18,05,40,11.40
2011,08,18,05,41,11.40
2011,08,18,05,42,11.40
2011,08,18,05,43,11.40
2011,08,18,05,44,11.40
2011,08,18,05,45,11.40
2011,08,18,05,46,11.40
2011,08,18,05,47,11.40
2011,08,18,05,48,11.40
2011,08,18,05,49,11.40
2011,08,18,05,50,11.30
2011,08,18,05,51,11.40
2011,08,18,05,52,11.30
2011,08,18,05,53,11.30
2011,08,18,05,54,11.30
2011,08,18,05,55,11.30
2011,08,18,05,56,11.30
2011,08,18,05,57,11.30
2011,08,18,05,58,11.30
2011,08,18,05,59,11.30
2011,08,18,06,00,11.30
2011,08,18,06,01,11.30
2011,08,18,06,02,11.30
2011,08,18,06,03,11.30
2011,08,18,06,04,11.30
2011,08,18,06,05,11.30
2011,08,18,06,06,11.30
2011,08,18,06,07,11.30
2011,08,18,06,08,11.30
2011,08,18,06,09,11.20
2011,08,18,06,10,11.30
2011,08,18,06,11,11.30
2011,08,18,06,12,11.30
2011,08,18,06,13,11.30
2011,08,18,06,14,11.30
2011,08,18,06,15,11.30
2011,08,18,06,16,11.30
2011,08,18,06,17,11.30
2011,08,18,06,18,11.30
2011,08,18,06,19,11.30
2011,08,18,06,20,11.30
2011,08,18,06,21,11.30
2011,08,18,06,22,11.30
2011,08,18,06,23,11.30
2011,08,18,06,24,11.30
2011,08,18,06,25,11.30
2011,08,18,06,26,11.30
2011,08,18,06,27,11.30
2011,08,18,06,28,11.30
2011,08,18,06,29,11.30
2011,08,18,06,30,11.30
2011,08,18,06,31,11.30
2011,08,18,06,32,11.30
2011,08,18,06,33,11.30
2011,08,18,06,34,11.30
2011,08,18,06,35,11.30
2011,08,18,06,36,11.30
2011,08,18,06,37,11.30
2011,08,18,06,38,11.30
2011,08,18,06,39,11.30
2011,08,18,06,40,11.30
2011,08,18,06,41,11.30
2011,08,18,06,42,11.30
2011,08,18,06,43,11.30
2011,08,18,06,44,11.30
2011,08,18,06,45,11.30
2011,08,18,06,46,11.30
2011,08,18,06,47,11.30
2011,08,18,06,48,11.30
2011,08,18,06,49,11.30
2011,08,18,06,50,11.30
2011,08,18,06,51,11.30
2011,08,18,06,52,11.30
2011,08,18,06,53,11.30
2011,08,18,06,54,11.30
2011,08,18,06,55,11.30
2011,08,18,06,56,11.20
2011,08,18,06,57,11.20
2011,08,18,06,58,11.20
2011,08,18,06,59,11.20
2011,08,18,07,00,11.20
2011,08,18,07,01,11.20
2011,08,18,07,02,11.30
2011,08,18,07,03,11.30
2011,08,18,07,04,11.30
2011,08,18,07,05,11.30
2011,08,18,07,06,11.30
2011,08,18,07,07,11.30
2011,08,18,07,08,11.30
2011,08,18,07,09,11.30
2011,08,18,07,10,11.30
2011,08,18,07,11,11.30
2011,08,18,07,12,11.30
2011,08,18,07,13,11.30
2011,08,18,07,14,11.30
2011,08,18,07,15,11.30
2011,08,18,07,16,11.40
2011,08,18,07,17,11.40
2011,08,18,07,18,11.40
2011,08,18,07,19,11.40
2011,08,18,07,20,11.40
2011,08,18,07,21,11.40
2011,08,18,07,22,11.50
2011,08,18,07,23,11.50
2011,08,18,07,24,11.50
2011,08,18,07,25,11.50
2011,08,18,07,26,11.50
2011,08,18,07,27,11.50
2011,08,18,07,28,11.60
2011,08,18,07,29,11.60
2011,08,18,07,30,11.60
2011,08,18,07,31,11.60
2011,08,18,07,32,11.60
2011,08,18,07,33,11.60
2011,08,18,07,34,11.60
2011,08,18,07,35,11.60
2011,08,18,07,36,11.60
2011,08,18,07,37,11.60
2011,08,18,07,38,11.60
2011,08,18,07,39,11.60
2011,08,18,07,40,11.60
2011,08,18,07,41,11.70
2011,08,18,07,42,11.70
2011,08,18,07,43,11.70
2011,08,18,07,44,11.70
2011,08,18,07,45,11.70
2011,08,18,07,46,11.70
2011,08,18,07,47,11.70
2011,08,18,07,48,11.70
2011,08,18,07,49,11.70
2011,08,18,07,50,11.80
2011,08,18,07,51,11.80
2011,08,18,07,52,11.80
2011,08,18,07,53,11.80
2011,08,18,07,54,11.80
2011,08,18,07,55,11.80
2011,08,18,07,56,11.80
2011,08,18,07,57,11.90
2011,08,18,07,58,11.90
2011,08,18,07,59,11.90
2011,08,18,08,00,11.90
2011,08,18,08,01,11.90
2011,08,18,08,02,11.90
2011,08,18,08,03,11.90
2011,08,18,08,04,11.90
2011,08,18,08,05,11.90
2011,08,18,08,06,11.90
2011,08,18,08,07,12.00
2011,08,18,08,08,12.00
2011,08,18,08,09,12.00
2011,08,18,08,10,12.00
2011,08,18,08,11,12.00
2011,08,18,08,12,12.10
2011,08,18,08,13,12.10
2011,08,18,08,14,12.10
2011,08,18,08,15,12.10
2011,08,18,08,16,12.10
2011,08,18,08,17,12.20
2011,08,18,08,18,12.20
2011,08,18,08,19,12.20
2011,08,18,08,20,12.20
2011,08,18,08,21,12.20
2011,08,18,08,22,12.30
2011,08,18,08,23,12.30
2011,08,18,08,24,12.30
2011,08,18,08,25,12.30
2011,08,18,08,26,12.40
2011,08,18,08,27,12.40
2011,08,18,08,28,12.40
2011,08,18,08,29,12.40
2011,08,18,08,30,12.50
2011,08,18,08,31,12.50
2011,08,18,08,32,12.60
2011,08,18,08,33,12.60
2011,08,18,08,34,12.60
2011,08,18,08,35,12.60
2011,08,18,08,36,12.70
2011,08,18,08,37,12.70
2011,08,18,08,38,12.70
2011,08,18,08,39,12.80
2011,08,18,08,40,12.80
2011,08,18,08,41,12.80
2011,08,18,08,42,12.90
2011,08,18,08,43,12.90
2011,08,18,08,44,12.90
2011,08,18,08,45,13.00
2011,08,18,08,46,13.00
2011,08,18,08,47,13.10
2011,08,18,08,48,13.10
2011,08,18,08,49,13.10
2011,08,18,08,50,13.20
2011,08,18,08,51,13.20
2011,08,18,08,52,13.20
2011,08,18,08,53,13.30
2011,08,18,08,54,13.30
2011,08,18,08,55,13.40
2011,08,18,08,56,13.40
2011,08,18,08,57,13.40
2011,08,18,08,58,13.50
2011,08,18,08,59,13.60
2011,08,18,09,00,13.60
2011,08,18,09,01,13.60
2011,08,18,09,02,13.70
2011,08,18,09,03,13.70
2011,08,18,09,04,13.80
2011,08,18,09,05,13.80
2011,08,18,09,06,13.80
2011,08,18,09,07,13.90
2011,08,18,09,08,13.90
2011,08,18,09,09,13.90
2011,08,18,09,10,14.00
2011,08,18,09,11,14.00
2011,08,18,09,12,14.10
2011,08,18,09,13,14.10
2011,08,18,09,14,14.20
2011,08,18,09,15,14.20
2011,08,18,09,16,14.20
2011,08,18,09,17,14.30
2011,08,18,09,18,14.30
2011,08,18,09,19,14.40
2011,08,18,09,20,14.40
2011,08,18,09,21,14.50
2011,08,18,09,22,14.50
2011,08,18,09,23,14.60
2011,08,18,09,24,14.60
2011,08,18,09,25,14.70
2011,08,18,09,26,14.70
2011,08,18,09,27,14.70
2011,08,18,09,28,14.80
2011,08,18,09,29,14.80
2011,08,18,09,30,14.80
2011,08,18,09,31,14.90
2011,08,18,09,32,14.90
2011,08,18,09,33,14.90
2011,08,18,09,34,15.00
2011,08,18,09,35,15.00
2011,08,18,09,36,15.10
2011,08,18,09,37,15.10
2011,08,18,09,38,15.10
2011,08,18,09,39,15.20
2011,08,18,09,40,15.20
2011,08,18,09,41,15.20
2011,08,18,09,42,15.30
2011,08,18,09,43,15.30
2011,08,18,09,44,15.30
2011,08,18,09,45,15.30
2011,08,18,09,46,15.30
2011,08,18,09,47,15.30
2011,08,18,09,48,15.40
2011,08,18,09,49,15.40
2011,08,18,09,50,15.40
2011,08,18,09,51,15.40
2011,08,18,09,52,15.40
2011,08,18,09,53,15.50
2011,08,18,09,54,15.50
2011,08,18,09,55,15.50
2011,08,18,09,56,15.60
2011,08,18,09,57,15.60
2011,08,18,09,58,15.60
2011,08,18,09,59,15.70
2011,08,18,10,00,15.70
2011,08,18,10,01,15.70
2011,08,18,10,02,15.80
2011,08,18,10,03,15.80
2011,08,18,10,04,15.80
2011,08,18,10,05,15.80
2011,08,18,10,06,15.90
2011,08,18,10,07,15.90
2011,08,18,10,08,15.90
2011,08,18,10,09,16.00
2011,08,18,10,10,16.10
2011,08,18,10,11,16.10
2011,08,18,10,12,16.10
2011,08,18,10,13,16.20
2011,08,18,10,14,16.20
2011,08,18,10,15,16.30
2011,08,18,10,16,16.30
2011,08,18,10,17,16.40
2011,08,18,10,18,16.40
2011,08,18,10,19,16.40
2011,08,18,10,20,16.50
2011,08,18,10,21,16.60
2011,08,18,10,22,16.60
2011,08,18,10,23,16.60
2011,08,18,10,24,16.60
2011,08,18,10,25,16.70
2011,08,18,10,26,16.70
2011,08,18,10,27,16.70
2011,08,18,10,28,16.70
2011,08,18,10,29,16.70
2011,08,18,10,30,16.80
2011,08,18,10,31,16.80
2011,08,18,10,32,16.80
2011,08,18,10,33,16.80
2011,08,18,10,34,16.80
2011,08,18,10,35,16.80
2011,08,18,10,36,16.80
2011,08,18,10,37,16.80
2011,08,18,10,38,16.80
2011,08,18,10,39,16.80
2011,08,18,10,40,16.80
2011,08,18,10,41,16.90
2011,08,18,10,42,16.90
2011,08,18,10,43,16.90
2011,08,18,10,44,16.90
2011,08,18,10,45,17.00
2011,08,18,10,46,17.00
2011,08,18,10,47,17.00
2011,08,18,10,48,17.10
2011,08,18,10,49,17.10
2011,08,18,10,50,17.10
2011,08,18,10,51,17.10
2011,08,18,10,52,17.20
2011,08,18,10,53,17.20
2011,08,18,10,54,17.20
2011,08,18,10,55,17.30
2011,08,18,10,56,17.30
2011,08,18,10,57,17.30
2011,08,18,10,58,17.40
2011,08,18,10,59,17.40
2011,08,18,11,00,17.40
2011,08,18,11,01,17.40
2011,08,18,11,02,17.50
2011,08,18,11,03,17.50
2011,08,18,11,04,17.50
2011,08,18,11,05,17.50
2011,08,18,11,06,17.60
2011,08,18,11,07,17.60
2011,08,18,11,08,17.60
2011,08,18,11,09,17.70
2011,08,18,11,10,17.70
2011,08,18,11,11,17.80
2011,08,18,11,12,17.80
2011,08,18,11,13,17.90
2011,08,18,11,14,17.90
2011,08,18,11,15,18.00
2011,08,18,11,16,18.10
2011,08,18,11,17,18.10
2011,08,18,11,18,18.20
2011,08,18,11,19,18.30
2011,08,18,11,20,18.30
2011,08,18,11,21,18.40
2011,08,18,11,22,18.40
2011,08,18,11,23,18.40
2011,08,18,11,24,18.40
2011,08,18,11,25,18.50
2011,08,18,11,26,18.50
2011,08,18,11,27,18.50
2011,08,18,11,28,18.60
2011,08,18,11,29,18.70
2011,08,18,11,30,18.80
2011,08,18,11,31,18.80
2011,08,18,11,32,18.80
2011,08,18,11,33,18.80
2011,08,18,11,34,18.90
2011,08,18,11,35,18.90
2011,08,18,11,36,18.90
2011,08,18,11,37,18.90
2011,08,18,11,38,19.00
2011,08,18,11,39,19.00
2011,08,18,11,40,19.00
2011,08,18,11,41,19.00
2011,08,18,11,42,19.00
2011,08,18,11,43,19.00
2011,08,18,11,44,19.00
2011,08,18,11,45,19.00
2011,08,18,11,46,19.00
2011,08,18,11,47,19.10
2011,08,18,11,48,19.10
2011,08,18,11,49,19.10
2011,08,18,11,50,19.10
2011,08,18,11,51,19.10
2011,08,18,11,52,19.10
2011,08,18,11,53,19.10
2011,08,18,11,54,19.10
2011,08,18,11,55,19.10
2011,08,18,11,56,19.10
2011,08,18,11,57,19.10
2011,08,18,11,58,19.10
2011,08,18,11,59,19.10
2011,08,18,12,00,19.10
2011,08,18,12,01,19.20
2011,08,18,12,02,19.20
2011,08,18,12,03,19.20
2011,08,18,12,04,19.20
2011,08,18,12,05,19.20
2011,08,18,12,06,19.20
2011,08,18,12,07,19.20
2011,08,18,12,08,19.30
2011,08,18,12,09,19.30
2011,08,18,12,10,19.40
2011,08,18,12,11,19.40
2011,08,18,12,12,19.50
2011,08,18,12,13,19.50
2011,08,18,12,14,19.60
2011,08,18,12,15,19.60
2011,08,18,12,16,19.60
2011,08,18,12,17,19.60
2011,08,18,12,18,19.70
2011,08,18,12,19,19.70
2011,08,18,12,20,19.70
2011,08,18,12,21,19.80
2011,08,18,12,22,19.70
2011,08,18,12,23,19.70
2011,08,18,12,24,19.80
2011,08,18,12,25,19.80
2011,08,18,12,26,19.80
2011,08,18,12,27,19.80
2011,08,18,12,28,19.80
2011,08,18,12,29,19.80
2011,08,18,12,30,19.80
2011,08,18,12,31,19.80
2011,08,18,12,32,19.90
2011,08,18,12,33,19.90
2011,08,18,12,34,19.90
2011,08,18,12,35,19.90
2011,08,18,12,36,19.90
2011,08,18,12,37,19.90
2011,08,18,12,38,20.00
2011,08,18,12,39,20.00
2011,08,18,12,40,20.10
2011,08,18,12,41,20.10
2011,08,18,12,42,20.20
2011,08,18,12,43,20.20
2011,08,18,12,44,20.20
2011,08,18,12,45,20.20
2011,08,18,12,46,20.20
2011,08,18,12,47,20.20
2011,08,18,12,48,20.20
2011,08,18,12,49,20.10
2011,08,18,12,50,20.10
2011,08,18,12,51,20.10
2011,08,18,12,52,20.10
2011,08,18,12,53,20.10
2011,08,18,12,54,20.10
2011,08,18,12,55,20.10
2011,08,18,12,56,20.10
2011,08,18,12,57,20.10
2011,08,18,12,58,20.10
2011,08,18,12,59,20.10
2011,08,18,13,00,20.10
2011,08,18,13,01,20.10
2011,08,18,13,02,20.10
2011,08,18,13,03,20.10
2011,08,18,13,04,20.10
2011,08,18,13,05,20.10
2011,08,18,13,06,20.00
2011,08,18,13,07,20.00
2011,08,18,13,08,20.00
2011,08,18,13,09,19.90
2011,08,18,13,10,19.90
2011,08,18,13,11,19.90
2011,08,18,13,12,19.90
2011,08,18,13,13,19.90
2011,08,18,13,14,19.90
2011,08,18,13,15,20.00
2011,08,18,13,16,20.00
2011,08,18,13,17,20.10
2011,08,18,13,18,20.10
2011,08,18,13,19,20.10
2011,08,18,13,20,20.10
2011,08,18,13,21,20.10
2011,08,18,13,22,20.10
2011,08,18,13,23,20.10
2011,08,18,13,24,20.10
2011,08,18,13,25,20.10
2011,08,18,13,26,20.10
2011,08,18,13,27,20.10
2011,08,18,13,28,20.10
2011,08,18,13,29,20.10
2011,08,18,13,30,20.10
2011,08,18,13,31,20.20
2011,08,18,13,32,20.20
2011,08,18,13,33,20.10
2011,08,18,13,34,20.10
2011,08,18,13,35,20.10
2011,08,18,13,36,20.20
2011,08,18,13,37,20.20
2011,08,18,13,38,20.20
2011,08,18,13,39,20.20
2011,08,18,13,40,20.10
2011,08,18,13,41,20.10
2011,08,18,13,42,20.10
2011,08,18,13,43,20.00
2011,08,18,13,44,20.00
2011,08,18,13,45,20.00
2011,08,18,13,46,20.10
2011,08,18,13,47,20.10
2011,08,18,13,48,20.10
2011,08,18,13,49,20.10
2011,08,18,13,50,20.10
2011,08,18,13,51,20.10
2011,08,18,13,52,20.10
2011,08,18,13,53,20.10
2011,08,18,13,54,20.10
2011,08,18,13,55,20.10
2011,08,18,13,56,20.10
2011,08,18,13,57,20.10
2011,08,18,13,58,20.00
2011,08,18,13,59,19.90
2011,08,18,14,00,19.80
2011,08,18,14,01,19.80
2011,08,18,14,02,19.70
2011,08,18,14,03,19.70
2011,08,18,14,04,19.70
2011,08,18,14,05,19.70
2011,08,18,14,06,19.70
2011,08,18,14,07,19.70
2011,08,18,14,08,19.70
2011,08,18,14,09,19.70
2011,08,18,14,10,19.70
2011,08,18,14,11,19.70
2011,08,18,14,12,19.60
2011,08,18,14,13,19.60
2011,08,18,14,14,19.60
2011,08,18,14,15,19.60
2011,08,18,14,16,19.60
2011,08,18,14,17,19.60
2011,08,18,14,18,19.60
2011,08,18,14,19,19.60
2011,08,18,14,20,19.60
2011,08,18,14,21,19.60
2011,08,18,14,22,19.60
2011,08,18,14,23,19.70
2011,08,18,14,24,19.70
2011,08,18,14,25,19.70
2011,08,18,14,26,19.70
2011,08,18,14,27,19.70
2011,08,18,14,28,19.80
2011,08,18,14,29,19.80
2011,08,18,14,30,19.80
2011,08,18,14,31,19.80
2011,08,18,14,32,19.80
2011,08,18,14,33,19.90
2011,08,18,14,34,19.90
2011,08,18,14,35,20.00
2011,08,18,14,36,20.00
2011,08,18,14,37,20.10
2011,08,18,14,38,20.20
2011,08,18,14,39,20.20
2011,08,18,14,40,20.30
2011,08,18,14,41,20.30
2011,08,18,14,42,20.30
2011,08,18,14,43,20.30
2011,08,18,14,44,20.20
2011,08,18,14,45,20.20
2011,08,18,14,46,20.20
2011,08,18,14,47,20.20
2011,08,18,14,48,20.20
2011,08,18,14,49,20.20
2011,08,18,14,50,20.20
2011,08,18,14,51,20.20
2011,08,18,14,52,20.20
2011,08,18,14,53,20.30
2011,08,18,14,54,20.30
2011,08,18,14,55,20.30
2011,08,18,14,56,20.40
2011,08,18,14,57,20.40
2011,08,18,14,58,20.40
2011,08,18,14,59,20.40
2011,08,18,15,00,20.40
2011,08,18,15,01,20.40
2011,08,18,15,02,20.40
2011,08,18,15,03,20.50
2011,08,18,15,04,20.60
2011,08,18,15,05,20.60
2011,08,18,15,06,20.70
2011,08,18,15,07,20.70
2011,08,18,15,08,20.70
2011,08,18,15,09,20.70
2011,08,18,15,10,20.70
2011,08,18,15,11,20.70
2011,08,18,15,12,20.60
2011,08,18,15,13,20.60
2011,08,18,15,14,20.60
2011,08,18,15,15,20.60
2011,08,18,15,16,20.60
2011,08,18,15,17,20.60
2011,08,18,15,18,20.60
2011,08,18,15,19,20.60
2011,08,18,15,20,20.60
2011,08,18,15,21,20.60
2011,08,18,15,22,20.60
2011,08,18,15,23,20.60
2011,08,18,15,24,20.60
2011,08,18,15,25,20.60
2011,08,18,15,26,20.60
2011,08,18,15,27,20.60
2011,08,18,15,28,20.60
2011,08,18,15,29,20.60
2011,08,18,15,30,20.60
2011,08,18,15,31,20.70
2011,08,18,15,32,20.70
2011,08,18,15,33,20.70
2011,08,18,15,34,20.70
2011,08,18,15,35,20.70
2011,08,18,15,36,20.70
2011,08,18,15,37,20.70
2011,08,18,15,38,20.70
2011,08,18,15,39,20.70
2011,08,18,15,40,20.70
2011,08,18,15,41,20.70
2011,08,18,15,42,20.80
2011,08,18,15,43,20.80
2011,08,18,15,44,20.80
2011,08,18,15,45,20.80
2011,08,18,15,46,20.80
2011,08,18,15,47,20.80
2011,08,18,15,48,20.80
2011,08,18,15,49,20.80
2011,08,18,15,50,20.70
2011,08,18,15,51,20.70
2011,08,18,15,52,20.70
2011,08,18,15,53,20.70
2011,08,18,15,54,20.70
2011,08,18,15,55,20.70
2011,08,18,15,56,20.70
2011,08,18,15,57,20.70
2011,08,18,15,58,20.70
2011,08,18,15,59,20.80
2011,08,18,16,00,20.80
2011,08,18,16,01,20.80
2011,08,18,16,02,20.80
2011,08,18,16,03,20.80
2011,08,18,16,04,20.80
2011,08,18,16,05,20.90
2011,08,18,16,06,20.90
2011,08,18,16,07,20.90
2011,08,18,16,08,20.90
2011,08,18,16,09,20.90
2011,08,18,16,10,20.90
2011,08,18,16,11,20.90
2011,08,18,16,12,20.90
2011,08,18,16,13,20.90
2011,08,18,16,14,20.90
2011,08,18,16,15,20.90
2011,08,18,16,16,20.90
2011,08,18,16,17,20.90
2011,08,18,16,18,20.90
2011,08,18,16,19,20.90
2011,08,18,16,20,20.90
2011,08,18,16,21,20.90
2011,08,18,16,22,21.00
2011,08,18,16,23,21.00
2011,08,18,16,24,21.00
2011,08,18,16,25,21.00
2011,08,18,16,26,21.00
2011,08,18,16,27,21.10
2011,08,18,16,28,21.10
2011,08,18,16,29,21.10
2011,08,18,16,30,21.10
2011,08,18,16,31,21.00
2011,08,18,16,32,21.00
2011,08,18,16,33,21.00
2011,08,18,16,34,21.00
2011,08,18,16,35,21.00
2011,08,18,16,36,21.10
2011,08,18,16,37,21.10
2011,08,18,16,38,21.10
2011,08,18,16,39,21.10
2011,08,18,16,40,21.10
2011,08,18,16,41,21.10
2011,08,18,16,42,21.10
2011,08,18,16,43,21.00
2011,08,18,16,44,21.00
2011,08,18,16,45,21.00
2011,08,18,16,46,21.00
2011,08,18,16,47,21.00
2011,08,18,16,48,21.00
2011,08,18,16,49,21.00
2011,08,18,16,50,21.00
2011,08,18,16,51,21.00
2011,08,18,16,52,21.00
2011,08,18,16,53,21.00
2011,08,18,16,54,21.10
2011,08,18,16,55,21.10
2011,08,18,16,56,21.10
2011,08,18,16,57,21.20
2011,08,18,16,58,21.20
2011,08,18,16,59,21.20
2011,08,18,17,00,21.20
2011,08,18,17,01,21.20
2011,08,18,17,02,21.30
2011,08,18,17,03,21.30
2011,08,18,17,04,21.30
2011,08,18,17,05,21.30
2011,08,18,17,06,21.20
2011,08,18,17,07,21.10
2011,08,18,17,08,21.10
2011,08,18,17,09,21.00
2011,08,18,17,10,21.00
2011,08,18,17,11,21.00
2011,08,18,17,12,21.00
2011,08,18,17,13,21.00
2011,08,18,17,14,21.00
2011,08,18,17,15,21.00
2011,08,18,17,16,21.10
2011,08,18,17,17,21.10
2011,08,18,17,18,21.10
2011,08,18,17,19,21.10